Sexton Summit, OR

5:54 AM PDT on October 16, 2019 (GMT -0700)
Sexton Summit

Weather History for KSXT - August, 2019

Change the Weather History Date:

Saturday, August 31, 2019

  Actual Average Record
Temperature  
Mean Temperature 70 °F -  
Max Temperature 80 °F 70 °F 91 °F (1998)
Min Temperature 59 °F 50 °F 37 °F (2008)
Cooling Degree Days 4    
Growing Degree Days 20 (Base 50)    
Moisture  
Dew Point 45 °F    
Average Humidity 47    
Maximum Humidity 87    
Minimum Humidity 28    
Precipitation  
Precipitation 0.00 in - - ()
Sea Level Pressure  
Sea Level Pressure 29.95 in    
Wind  
Wind Speed 5 mph (SSW)    
Max Wind Speed 9 mph    
Max Gust Speed -    
Visibility 10 miles    
Events      
Averages and records for this station are not official NWS values.
T = Trace of Precipitation, MM = Missing Value Source: NWS Daily Summary

Daily Weather History Graph

Daily Weather History Graph

Search for Another Location

Airport or City:

Astronomy

Aug. 31, 2019 Rise Set
Actual Time 6:37 AM PDT 7:49 PM PDT
Civil Twilight 6:08 AM PDT 8:18 PM PDT
Nautical Twilight 5:33 AM PDT 8:53 PM PDT
Astronomical Twilight 4:56 AM PDT 9:29 PM PDT
Moon 8:01 AM PDT (8/31) 9:03 PM PDT (8/31)
Length of Visible Light 14h 10m
Length of Day
13h 12m
Waxing Crescent, 3% of the Moon is Illuminated
Aug 31
Waxing Crescent
Sep 5
First Quarter
Sep 13
Full
Sep 21
Last Quarter
Sep 28
New

Hourly Weather History & Observations

Time (PDT) Temp. Dew Point Humidity Pressure Visibility Wind Dir Wind Speed Gust Speed Precip Events Conditions
12:56 AM 63.0 °F 51.1 °F 65% 29.96 in 10.0 mi SSW 4.6 mph - N/A   Clear
1:56 AM 64.0 °F 42.1 °F 45% 29.94 in 10.0 mi South 5.8 mph - N/A   Clear
2:56 AM 63.0 °F 43.0 °F 48% 29.94 in 10.0 mi South 5.8 mph - N/A   Clear
3:56 AM 62.1 °F 42.1 °F 48% 29.94 in 10.0 mi South 4.6 mph - N/A   Clear
4:56 AM 63.0 °F 37.9 °F 40% 29.93 in 10.0 mi SW 5.8 mph - N/A   Clear
5:56 AM 60.1 °F 53.1 °F 78% 29.94 in 10.0 mi SW 5.8 mph - N/A   Clear
6:56 AM 61.0 °F 42.1 °F 50% 29.95 in 10.0 mi SSW 6.9 mph - N/A   Clear
8:56 AM 64.0 °F 43.0 °F 46% 29.99 in 10.0 mi SSE 5.8 mph - N/A   Clear
9:56 AM 68.0 °F 39.0 °F 35% 29.98 in 10.0 mi South 8.1 mph - N/A   Clear
10:56 AM 70.0 °F 36.0 °F 29% 29.97 in 10.0 mi South 6.9 mph - N/A   Clear
11:56 AM 73.9 °F 44.1 °F 34% 29.97 in 10.0 mi Variable 3.5 mph - N/A   Clear
12:56 PM 77.0 °F 42.1 °F 29% 29.95 in 10.0 mi Variable 3.5 mph - N/A   Clear
1:56 PM 75.9 °F 41.0 °F 29% 29.95 in 10.0 mi Calm Calm - N/A   Clear
2:56 PM 78.1 °F 44.1 °F 30% 29.93 in 10.0 mi Variable 3.5 mph - N/A   Clear
3:56 PM 79.0 °F 44.1 °F 29% 29.92 in 10.0 mi Variable 3.5 mph - N/A   Clear
4:56 PM 79.0 °F 43.0 °F 28% 29.91 in 10.0 mi Variable 5.8 mph - N/A   Clear
5:56 PM 77.0 °F 45.0 °F 32% 29.92 in 10.0 mi SSW 9.2 mph - N/A   Clear
6:56 PM 75.0 °F 48.0 °F 38% 29.92 in 10.0 mi Calm Calm - N/A   Clear
7:56 PM 70.0 °F 50.0 °F 49% 29.94 in 10.0 mi WSW 4.6 mph - N/A   Clear
8:56 PM 66.0 °F 52.0 °F 60% 29.96 in 10.0 mi NNW 6.9 mph - N/A   Clear
9:56 PM 64.0 °F 54.0 °F 70% 29.96 in 10.0 mi Variable 4.6 mph - N/A   Clear
10:56 PM 61.0 °F 54.0 °F 78% 29.96 in 10.0 mi NNW 6.9 mph - N/A   Clear
11:56 PM 59.0 °F 55.0 °F 87% 29.95 in 10.0 mi NNW 9.2 mph - N/A   Clear